Big Bear Station Historical Data
Daily Summary for October 1, 2017 Units:  English    Metric   Both
« Previous Day
Next Day »
Daily Weekly Monthly Yearly Custom
  High: Low: Average:
Temperature: 73.6 °F 37.2 °F 52.2 °F
Dew Point: 44.9 °F 26.7 °F 34.6 °F
Humidity: 77 % 20 % 55 %
Wind Speed: 6.3 mph 0.0 mph 1.3 mph
Wind Gust: -999.0 mph - -
Wind:- - WSW
Pressure: 30.08 in 29.94 in -
Precipitation: 0.00 in    
Historical Graphs
 
 
Tabular Data for October 1, 2017
Time Temperature Dew Point Pressure Wind Wind Speed Wind Gust Humidity Rainfall Rate (Hourly)
00:11 46.6 °F 29.9 °F 30.08 in SSE 1.7 mph -999.0 mph 52 % 0 in
00:26 45.3 °F 30.5 °F 30.08 in South 1.1 mph -999.0 mph 56 % 0 in
00:41 44.6 °F 29.0 °F 30.08 in Calm   -999.0 mph 54 % 0 in
00:56 44.2 °F 32.0 °F 30.07 in Calm   -999.0 mph 62 % 0 in
01:11 43.5 °F 27.9 °F 30.07 in Calm   -999.0 mph 54 % 0 in
01:27 43.0 °F 29.6 °F 30.07 in Calm   -999.0 mph 59 % 0 in
01:42 42.8 °F 28.6 °F 30.07 in Calm   -999.0 mph 57 % 0 in
01:57 41.9 °F 27.3 °F 30.07 in Calm   -999.0 mph 56 % 0 in
02:12 41.4 °F 29.0 °F 30.07 in Calm   -999.0 mph 61 % 0 in
02:27 40.8 °F 28.4 °F 30.07 in Calm   -999.0 mph 61 % 0 in
02:43 40.5 °F 28.5 °F 30.06 in Calm   -999.0 mph 62 % 0 in
02:58 40.6 °F 28.2 °F 30.06 in Calm   -999.0 mph 61 % 0 in
03:13 40.5 °F 30.4 °F 30.05 in Calm   -999.0 mph 67 % 0 in
03:28 40.6 °F 31.2 °F 30.05 in Calm   -999.0 mph 69 % 0 in
03:44 40.1 °F 31.8 °F 30.04 in Calm   -999.0 mph 72 % 0 in
03:59 39.7 °F 31.4 °F 30.05 in Calm   -999.0 mph 72 % 0 in
04:14 39.6 °F 32.3 °F 30.04 in Calm   -999.0 mph 75 % 0 in
04:29 39.4 °F 31.8 °F 30.04 in Calm   -999.0 mph 74 % 0 in
04:44 39.0 °F 29.7 °F 30.04 in Calm   -999.0 mph 69 % 0 in
05:00 38.7 °F 29.0 °F 30.04 in Calm   -999.0 mph 68 % 0 in
05:15 38.7 °F 27.6 °F 30.04 in Calm   -999.0 mph 64 % 0 in
05:30 38.3 °F 27.2 °F 30.04 in Calm   -999.0 mph 64 % 0 in
05:45 37.8 °F 26.7 °F 30.03 in Calm   -999.0 mph 64 % 0 in
06:00 37.8 °F 27.5 °F 30.03 in Calm   -999.0 mph 66 % 0 in
06:16 37.6 °F 29.0 °F 30.03 in Calm   -999.0 mph 71 % 0 in
06:31 37.9 °F 29.0 °F 30.03 in Calm   -999.0 mph 70 % 0 in
06:46 37.2 °F 28.7 °F 30.03 in Calm   -999.0 mph 71 % 0 in
07:01 37.4 °F 29.5 °F 30.04 in Calm   -999.0 mph 73 % 0 in
07:16 37.4 °F 27.8 °F 30.04 in Calm   -999.0 mph 68 % 0 in
07:32 37.8 °F 28.2 °F 30.04 in Calm   -999.0 mph 68 % 0 in
07:47 38.5 °F 30.9 °F 30.05 in Calm   -999.0 mph 74 % 0 in
08:02 38.7 °F 32.1 °F 30.05 in Calm   -999.0 mph 77 % 0 in
08:17 41.0 °F 33.3 °F 30.04 in Calm   -999.0 mph 74 % 0 in
08:32 40.6 °F 33.6 °F 30.04 in Calm   -999.0 mph 76 % 0 in
09:03 43.9 °F 36.2 °F 30.05 in Calm   -999.0 mph 74 % 0 in
09:18 46.4 °F 38.6 °F 30.05 in Calm   -999.0 mph 74 % 0 in
09:33 48.7 °F 39.7 °F 30.04 in Calm   -999.0 mph 71 % 0 in
09:49 51.6 °F 39.0 °F 30.04 in Calm   -999.0 mph 62 % 0 in
10:04 55.0 °F 31.1 °F 30.04 in Calm   -999.0 mph 40 % 0 in
10:19 60.4 °F 31.9 °F 30.04 in NNE 2.7 mph -999.0 mph 34 % 0 in
10:34 63.5 °F 30.7 °F 30.04 in NW 3.7 mph -999.0 mph 29 % 0 in
10:49 65.8 °F 32.7 °F 30.04 in West 1.7 mph -999.0 mph 29 % 0 in
11:05 67.3 °F 32.2 °F 30.04 in NW 3.7 mph -999.0 mph 27 % 0 in
11:20 68.9 °F 31.6 °F 30.04 in NW 4.7 mph -999.0 mph 25 % 0 in
11:35 70.3 °F 31.8 °F 30.04 in NNW 4.7 mph -999.0 mph 24 % 0 in
11:50 70.5 °F 36.7 °F 30.04 in North 4.2 mph -999.0 mph 29 % 0 in
12:06 71.2 °F 36.4 °F 30.04 in NNE 3.2 mph -999.0 mph 28 % 0 in
12:21 71.4 °F 36.6 °F 30.04 in North 3.2 mph -999.0 mph 28 % 0 in
12:36 70.9 °F 35.2 °F 30.04 in NW 3.2 mph -999.0 mph 27 % 0 in
12:51 71.6 °F 28.4 °F 30.03 in ESE 1.7 mph -999.0 mph 20 % 0 in
13:07 72.1 °F 33.3 °F 30.03 in WSW 5.3 mph -999.0 mph 24 % 0 in
13:22 70.9 °F 41.9 °F 30.02 in NW 5.3 mph -999.0 mph 35 % 0 in
13:37 70.0 °F 35.4 °F 30.02 in Calm   -999.0 mph 28 % 0 in
13:53 70.9 °F 32.3 °F 30.02 in NW 3.7 mph -999.0 mph 24 % 0 in
14:08 73.6 °F 31.3 °F 30.00 in NE 3.7 mph -999.0 mph 21 % 0 in
14:23 70.5 °F 34.0 °F 30.00 in WNW 5.3 mph -999.0 mph 26 % 0 in
14:38 69.1 °F 35.5 °F 30.00 in NW 3.2 mph -999.0 mph 29 % 0 in
14:54 69.3 °F 40.5 °F 29.99 in West 5.3 mph -999.0 mph 35 % 0 in
15:10 68.2 °F 42.3 °F 29.99 in WNW 5.3 mph -999.0 mph 39 % 0 in
15:25 67.3 °F 42.2 °F 29.99 in WNW 3.2 mph -999.0 mph 40 % 0 in
15:41 66.7 °F 44.1 °F 29.98 in NW 3.2 mph -999.0 mph 44 % 0 in
15:56 66.0 °F 42.9 °F 29.98 in NW 5.3 mph -999.0 mph 43 % 0 in
16:11 65.1 °F 39.5 °F 29.98 in NW 1.1 mph -999.0 mph 39 % 0 in
16:26 64.8 °F 41.2 °F 29.97 in NW 6.3 mph -999.0 mph 42 % 0 in
16:42 63.1 °F 44.7 °F 29.97 in NW 1.1 mph -999.0 mph 51 % 0 in
16:57 62.6 °F 44.2 °F 29.97 in WNW 2.2 mph -999.0 mph 51 % 0 in
17:12 63.9 °F 44.9 °F 29.96 in Calm   -999.0 mph 50 % 0 in
17:27 61.2 °F 44.4 °F 29.97 in NW 1.1 mph -999.0 mph 54 % 0 in
17:42 59.7 °F 44.9 °F 29.97 in SW 1.7 mph -999.0 mph 58 % 0 in
17:58 57.7 °F 44.3 °F 29.96 in NNW 1.1 mph -999.0 mph 61 % 0 in
18:13 56.7 °F 44.2 °F 29.96 in Calm   -999.0 mph 63 % 0 in
18:28 55.4 °F 44.2 °F 29.96 in Calm   -999.0 mph 66 % 0 in
18:43 54.1 °F 44.2 °F 29.96 in Calm   -999.0 mph 69 % 0 in
18:59 53.2 °F 43.7 °F 29.95 in Calm   -999.0 mph 70 % 0 in
19:14 52.3 °F 43.2 °F 29.95 in Calm   -999.0 mph 71 % 0 in
19:29 51.4 °F 41.9 °F 29.95 in Calm   -999.0 mph 70 % 0 in
19:44 50.9 °F 41.1 °F 29.95 in Calm   -999.0 mph 69 % 0 in
19:59 50.4 °F 38.3 °F 29.95 in Calm   -999.0 mph 63 % 0 in
20:15 50.2 °F 37.3 °F 29.96 in Calm   -999.0 mph 61 % 0 in
20:30 49.6 °F 37.1 °F 29.95 in Calm   -999.0 mph 62 % 0 in
20:45 49.8 °F 36.9 °F 29.95 in SSW 3.2 mph -999.0 mph 61 % 0 in
21:00 49.5 °F 35.8 °F 29.95 in Calm   -999.0 mph 59 % 0 in
21:15 49.5 °F 35.3 °F 29.96 in Calm   -999.0 mph 58 % 0 in
21:31 48.7 °F 35.0 °F 29.96 in Calm   -999.0 mph 59 % 0 in
21:46 48.6 °F 36.2 °F 29.95 in Calm   -999.0 mph 62 % 0 in
22:01 47.8 °F 35.0 °F 29.95 in SSE 1.7 mph -999.0 mph 61 % 0 in
22:16 47.8 °F 35.4 °F 29.94 in SE 1.1 mph -999.0 mph 62 % 0 in
22:31 47.5 °F 35.1 °F 29.94 in Calm   -999.0 mph 62 % 0 in
22:47 47.3 °F 34.5 °F 29.94 in SSW 1.7 mph -999.0 mph 61 % 0 in
23:02 47.7 °F 32.8 °F 29.94 in SSE 2.7 mph -999.0 mph 56 % 0 in
23:17 47.8 °F 32.4 °F 29.94 in SSE 2.7 mph -999.0 mph 55 % 0 in
23:32 48.2 °F 31.9 °F 29.94 in SE 1.1 mph -999.0 mph 53 % 0 in
23:47 48.4 °F 30.1 °F 29.94 in SSE 1.7 mph -999.0 mph 49 % 0 in
Big Bear CA Weather
Compliments of Weather Underground - 1.5 mb